PulseSat

PulseSat

COSMOS 2516 (753)

Last updated on Jan. 18, 2019, 3 a.m. UTC

1 41554U 16032A   19017.54982924  .00000009  00000-0  00000+0 0  9990
2 41554  64.3388 284.9192 0011748 224.5662 308.6988  2.13101719 20522
UTC
Height (km)
Latitude
Longitude
Inclination
Orbital Period

Next 30 passes for location: Hong Kong

Rise time Rise Azimuth (degrees) Set time Set Azimuth (degrees) Duration Max altitude (degrees)

No matching passes for this satellites

PulseSat

PulseSat is the new satellites software and hardware trackering solution by Pulsely.
Satellite Two Line Element Set source: US Air Force Space Command

Download PulseSat for iOS
© 2017 Pulsely Limited